AirNav   Air Wisconsin Up To $57,000 Bonus
 
 1682 users online  

60KS Alley Field Airport
Douglass, Kansas, USA

GOING TO DOUGLASS?


FAA INFORMATION EFFECTIVE 04 NOVEMBER 2021

Location

FAA Identifier: 60KS
Lat/Long: 37-30-50.0710N 097-00-01.1310W
37-30.834517N 097-00.018850W
37.5139086,-97.0003142
(estimated)
Elevation: 1260 ft. / 384 m (estimated)
Variation: 07E (1985)
From city: 1 mile E of DOUGLASS, KS
Time zone: UTC -6 (UTC -5 during Daylight Saving Time)
Zip code: 67039

Airport Operations

Airport use: Private use. Permission required prior to landing
Activation date: 02/1987
Control tower: no
ARTCC: KANSAS CITY CENTER
FSS: WICHITA FLIGHT SERVICE STATION
Attendance: UNATNDD
Wind indicator: yes
Segmented circle: no

Airport Communications

WX AWOS-3P at 3AU (10 nm N): 124.175 (316-733-6696)
WX AWOS-3PT at BEC (15 nm NW): 119.45 (316-515-7116)
WX AWOS-3 at 1K1 (17 nm N): 118.3 (316-530-6004)
WX ASOS at AAO (18 nm NW): 134.025 (316-636-2541)
WX AWOS-3P at EQA (18 nm NE): 120.875 (316-322-8095)

Nearby radio navigation aids

VOR radial/distance  VOR name  Freq  Var
ICTr110/31.0WICHITA VORTAC113.8007E

Airport Services

Runway Information

Runway 17/35

Dimensions: 1200 x 75 ft. / 366 x 23 m
Surface: turf
RUNWAY 17  RUNWAY 35
Traffic pattern: rightleft

Airport Ownership and Management from official FAA records

Ownership: Privately-owned
Owner: LAWRENCE ALLEY
1220 E. 8TH
DOUGLASS, KS 67039
Phone 316-747-2510
Manager: LAWRENCE ALLEY
1220 E. 8TH
DOUGLASS, KS 67039
Phone 316-747-2510

Airport Operational Statistics

Aircraft based on the field: 2
Single engine airplanes: 2
    

Additional Remarks

FOR CD CTC WICHITA APCH AT 316-350-1520.

Instrument Procedures

There are no published instrument procedures at 60KS.

Some nearby airports with instrument procedures:

3AU - Augusta Municipal Airport (10 nm N)
KIAB - Mc Connell Air Force Base (14 nm NW)
KCEA - Cessna Aircraft Field Airport (14 nm NW)
KBEC - Beech Factory Airport (15 nm NW)
1K1 - Lloyd Stearman Field Airport (17 nm N)
KAAO - Colonel James Jabara Airport (18 nm NW)
KEQA - El Dorado/Capt Jack Thomas Memorial Airport (18 nm NE)
 
Loc | Ops | Rwys | IFR | FBO | Links
Com | Nav | Svcs | Stats | Notes
Area around 60KS (Alley Field Airport)
 
Road maps at: MapQuest Bing Google
 
Aerial photo
No photo
 
Sectional chart

 
Airport distance calculator
Flying to Alley Field Airport? Find the distance to fly.

From to 60KS

Sunrise and sunset
Times for 30-Nov-2021
 Local
(UTC-6)
 Zulu
(UTC)
Morning civil twilight06:5512:55
Sunrise07:2413:24
Sunset17:0923:09
Evening civil twilight17:3823:38

Current date and time
Zulu (UTC)  30-Nov-2021 17:57:07
Local (UTC-6)  30-Nov-2021 11:57:07
 
METAR
K3AU 
10nm N 
301730Z AUTO 02008KT 10SM CLR 12/00 A3015 RMK AO2
KIAB 
14nm NW 
301656Z AUTO 07011KT 10SM OVC140 15/03 A3012 RMK AO2 SLP202 T01460025 $
KBEC 
15nm NW 
301735Z AUTO 04009G16KT 10SM SCT120 12/03 A3015 RMK AO2 T01200025
K1K1 
17nm N 
301735Z AUTO 06005KT 10SM SCT120 12/02 A3016 RMK AO2 T01160024
KAAO 
18nm NW 
301754Z AUTO 03007KT 10SM BKN120 12/03 A3016 RMK AO2 SLP215 T01220028 10133 20056 53021
KEQA 
18nm NE 
301735Z AUTO 05008G14KT 10SM BKN120 13/03 A3015 RMK AO2
TAF
KIAB 
14nm NW 
301239Z 3012/0116 06010G20KT 9999 FEW140 QNH2999INS BECMG 3014/3015 06010G20KT 9999 SCT120 QNH3009INS BECMG 3023/3024 04009KT 9999 SKC QNH3006INS BECMG 0102/0103 VRB06KT 9999 SKC QNH3002INS TX17/3021Z TN03/3012Z
NOTAMs
Click for the latest NOTAMs
NOTAMs are issued by the DoD/FAA and will open in a separate window not controlled by AirNav.

 

 
 

Would you like to see your business listed on this page?

 If your business provides an interesting product or service to pilots, flight crews, aircraft, or users of the Alley Field Airport, you should consider listing it here.  To start the listing process, click on the button below
 
Add a business
 

Other Pages about Alley Field Airport

Update a link
 
Copyright © AirNav, LLC. All rights reserved. Privacy Policy  Contact